| time (UTC) | temp F | wind direction | speed MPH | gust MPH | rain 1hr in | rain 24hr in | rain mn in | humidity % | barometer mb |
| 20260903040112 | 80 | 0 | 0.0 | 0.0 | 0.00 | 0.00 | 0.00 | 79 | 1017.8 |
| 20260903035534 | 80 | 0 | 0.0 | 0.0 | 0.00 | 0.00 | 0.00 | 79 | 1017.7 |
| 20260903035230 | 80 | 0 | 0.0 | 0.0 | 0.00 | 0.00 | 0.00 | 78 | 1017.8 |
| 20260903034548 | 80 | 0 | 0.0 | 0.0 | 0.00 | 0.00 | 0.00 | 78 | 1017.9 |
| 20260903034036 | 80 | 0 | 0.0 | 0.0 | 0.00 | 0.00 | 0.00 | 78 | 1017.9 |
| 20260903033530 | 80 | 0 | 0.0 | 0.0 | 0.00 | 0.00 | 0.00 | 78 | 1018.0 |
| 20260903033054 | 80 | 0 | 0.0 | 0.0 | 0.00 | 0.00 | 0.00 | 77 | 1017.9 |
| 20260903032532 | 81 | 0 | 0.0 | 0.0 | 0.00 | 0.00 | 0.00 | 78 | 1018.0 |
| 20260903032032 | 81 | 0 | 0.0 | 0.0 | 0.00 | 0.00 | 0.00 | 78 | 1018.0 |
| 20260903031606 | 81 | 0 | 0.0 | 0.0 | 0.00 | 0.00 | 0.00 | 77 | 1018.0 |
| 20260903031029 | 81 | 0 | 0.0 | 4.0 | 0.00 | 0.00 | 0.00 | 77 | 1018.1 |
| 20260903030531 | 81 | 0 | 0.0 | 4.0 | 0.00 | 0.00 | 0.00 | 77 | 1018.1 |
| 20260903030053 | 81 | 42 | 0.0 | 0.0 | 0.00 | 0.00 | 0.00 | 77 | 1018.0 |
| 20260903025533 | 81 | 0 | 0.0 | 0.0 | 0.00 | 0.00 | 0.00 | 76 | 1018.0 |
| 20260903025031 | 81 | 0 | 0.0 | 0.0 | 0.00 | 0.00 | 0.00 | 76 | 1018.0 |
| 20260903024547 | 82 | 0 | 0.0 | 0.0 | 0.00 | 0.00 | 0.00 | 75 | 1018.0 |
| 20260903024029 | 82 | 0 | 0.0 | 0.0 | 0.00 | 0.00 | 0.00 | 75 | 1018.0 |
| 20260903023529 | 82 | 0 | 0.0 | 0.0 | 0.00 | 0.00 | 0.00 | 74 | 1018.0 |
| 20260903023043 | 82 | 0 | 0.0 | 0.0 | 0.00 | 0.00 | 0.00 | 74 | 1018.0 |
| 20260903022533 | 82 | 0 | 0.0 | 0.0 | 0.00 | 0.00 | 0.00 | 73 | 1018.0 |
| 20260903022031 | 82 | 0 | 0.0 | 0.0 | 0.00 | 0.00 | 0.00 | 73 | 1017.9 |
| 20260903021554 | 83 | 0 | 0.0 | 0.0 | 0.00 | 0.00 | 0.00 | 72 | 1017.9 |
| 20260903021034 | 83 | 0 | 0.0 | 0.0 | 0.00 | 0.00 | 0.00 | 72 | 1017.9 |
| 20260903020529 | 83 | 0 | 0.0 | 0.0 | 0.00 | 0.00 | 0.00 | 71 | 1017.9 |
| 20260903020049 | 83 | 0 | 0.0 | 0.0 | 0.00 | 0.00 | 0.00 | 71 | 1017.9 |
| 20260903015529 | 83 | 0 | 0.0 | 0.0 | 0.00 | 0.00 | 0.00 | 71 | 1017.9 |
| 20260903015031 | 83 | 0 | 0.0 | 0.0 | 0.00 | 0.00 | 0.00 | 71 | 1017.8 |
| 20260903014556 | 84 | 0 | 0.0 | 0.0 | 0.00 | 0.00 | 0.00 | 70 | 1017.7 |
| 20260903014032 | 84 | 0 | 0.0 | 0.0 | 0.00 | 0.00 | 0.00 | 70 | 1017.8 |
| 20260903013529 | 84 | 0 | 0.0 | 0.0 | 0.00 | 0.00 | 0.00 | 70 | 1017.8 |
| 20260903013053 | 84 | 0 | 0.0 | 0.0 | 0.00 | 0.00 | 0.00 | 69 | 1017.6 |
| 20260903012532 | 84 | 0 | 0.0 | 0.0 | 0.00 | 0.00 | 0.00 | 68 | 1017.6 |
| 20260903012033 | 85 | 0 | 0.0 | 0.0 | 0.00 | 0.00 | 0.00 | 67 | 1017.6 |
| 20260903011545 | 85 | 0 | 0.0 | 0.0 | 0.00 | 0.00 | 0.00 | 67 | 1017.6 |
| 20260903011032 | 85 | 0 | 0.0 | 0.0 | 0.00 | 0.00 | 0.00 | 65 | 1017.5 |
| 20260903010529 | 86 | 0 | 0.0 | 0.0 | 0.00 | 0.00 | 0.00 | 65 | 1017.4 |
| 20260903010041 | 86 | 0 | 0.0 | 0.0 | 0.00 | 0.00 | 0.00 | 65 | 1017.3 |
| 20260903005532 | 86 | 0 | 0.0 | 0.0 | 0.00 | 0.00 | 0.00 | 65 | 1017.4 |
| 20260903005031 | 86 | 0 | 0.0 | 0.0 | 0.00 | 0.00 | 0.00 | 65 | 1017.4 |
| 20260903004552 | 87 | 0 | 0.0 | 0.0 | 0.00 | 0.00 | 0.00 | 64 | 1017.4 |
| 20260903004030 | 87 | 0 | 0.0 | 0.0 | 0.00 | 0.00 | 0.00 | 63 | 1017.2 |
| 20260903003529 | 87 | 0 | 0.0 | 0.0 | 0.00 | 0.00 | 0.00 | 63 | 1017.1 |
| 20260903003047 | 88 | 0 | 0.0 | 0.0 | 0.00 | 0.00 | 0.00 | 63 | 1017.1 |
| 20260903002528 | 88 | 0 | 0.0 | 0.0 | 0.00 | 0.00 | 0.00 | 62 | 1017.1 |
| 20260903002029 | 88 | 0 | 0.0 | 1.0 | 0.00 | 0.00 | 0.00 | 61 | 1017.2 |
| 20260903001542 | 89 | 0 | 0.0 | 1.0 | 0.00 | 0.00 | 0.00 | 60 | 1017.0 |
| 20260903001036 | 89 | 0 | 0.0 | 0.0 | 0.00 | 0.00 | 0.00 | 60 | 1016.9 |
| 20260903000528 | 89 | 0 | 0.0 | 0.0 | 0.00 | 0.00 | 0.00 | 59 | 1017.0 |
| 20260903000058 | 90 | 0 | 0.0 | 0.0 | 0.00 | 0.00 | 0.00 | 59 | 1016.9 |
| 20260902235529 | 90 | 0 | 0.0 | 0.0 | 0.00 | 0.00 | 0.00 | 58 | 1017.0 |
| 20260902235032 | 90 | 0 | 0.0 | 0.0 | 0.00 | 0.00 | 0.00 | 58 | 1017.0 |
| 20260902234550 | 90 | 0 | 0.0 | 0.0 | 0.00 | 0.00 | 0.00 | 58 | 1017.0 |
| 20260902234030 | 91 | 0 | 0.0 | 0.0 | 0.00 | 0.00 | 0.00 | 57 | 1017.0 |
| 20260902233528 | 91 | 0 | 0.0 | 2.0 | 0.00 | 0.00 | 0.00 | 57 | 1016.9 |
| 20260902233047 | 91 | 0 | 0.0 | 2.0 | 0.00 | 0.00 | 0.00 | 56 | 1016.9 |
| 20260902232530 | 91 | 0 | 0.0 | 2.0 | 0.00 | 0.00 | 0.00 | 55 | 1017.0 |
| 20260902232029 | 92 | 0 | 0.0 | 2.0 | 0.00 | 0.00 | 0.00 | 55 | 1016.9 |
| 20260902231542 | 92 | 0 | 0.0 | 2.0 | 0.00 | 0.00 | 0.00 | 54 | 1017.0 |
| 20260902231029 | 93 | 0 | 0.0 | 4.0 | 0.00 | 0.00 | 0.00 | 53 | 1016.9 |
| 20260902230531 | 93 | 41 | 0.0 | 4.0 | 0.00 | 0.00 | 0.00 | 51 | 1016.9 |
| 20260902230056 | 93 | 48 | 0.0 | 3.0 | 0.00 | 0.00 | 0.00 | 51 | 1016.9 |
| 20260902225532 | 94 | 49 | 0.0 | 4.0 | 0.00 | 0.00 | 0.00 | 52 | 1017.0 |
| 20260902225032 | 94 | 49 | 1.0 | 4.0 | 0.00 | 0.00 | 0.00 | 50 | 1016.8 |
| 20260902224549 | 94 | 50 | 1.0 | 4.0 | 0.00 | 0.00 | 0.00 | 50 | 1017.0 |
| 20260902224031 | 94 | 110 | 0.0 | 5.0 | 0.00 | 0.00 | 0.00 | 49 | 1017.0 |
| 20260902223530 | 94 | 69 | 2.0 | 6.0 | 0.00 | 0.00 | 0.00 | 49 | 1017.0 |
| 20260902223046 | 94 | 90 | 2.0 | 6.0 | 0.00 | 0.00 | 0.00 | 49 | 1017.0 |
| 20260902222530 | 94 | 72 | 2.0 | 5.0 | 0.00 | 0.00 | 0.00 | 48 | 1017.0 |
| 20260902222030 | 95 | 48 | 2.0 | 6.0 | 0.00 | 0.00 | 0.00 | 47 | 1017.0 |
| 20260902221553 | 95 | 40 | 1.0 | 6.0 | 0.00 | 0.00 | 0.00 | 48 | 1017.1 |
| 20260902221030 | 95 | 40 | 2.0 | 9.0 | 0.00 | 0.00 | 0.00 | 47 | 1017.0 |
| 20260902220528 | 95 | 39 | 4.0 | 9.0 | 0.00 | 0.00 | 0.00 | 47 | 1017.1 |
| 20260902220049 | 95 | 140 | 3.0 | 7.0 | 0.00 | 0.00 | 0.00 | 47 | 1017.1 |
| 20260902215531 | 95 | 0 | 1.0 | 6.0 | 0.00 | 0.00 | 0.00 | 46 | 1017.1 |
| 20260902215027 | 96 | 59 | 2.0 | 5.0 | 0.00 | 0.00 | 0.00 | 46 | 1017.1 |
| 20260902214559 | 96 | 50 | 2.0 | 6.0 | 0.00 | 0.00 | 0.00 | 45 | 1017.2 |
| 20260902214029 | 95 | 40 | 3.0 | 6.0 | 0.00 | 0.00 | 0.00 | 46 | 1017.2 |
| 20260902213528 | 95 | 20 | 2.0 | 8.0 | 0.00 | 0.00 | 0.00 | 47 | 1017.2 |
| 20260902213052 | 95 | 32 | 3.0 | 8.0 | 0.00 | 0.00 | 0.00 | 47 | 1017.2 |
| 20260902212528 | 95 | 0 | 1.0 | 9.0 | 0.00 | 0.00 | 0.00 | 46 | 1017.2 |
| 20260902212031 | 95 | 19 | 3.0 | 9.0 | 0.00 | 0.00 | 0.00 | 47 | 1017.2 |
| 20260902211603 | 96 | 139 | 1.0 | 8.0 | 0.00 | 0.00 | 0.00 | 47 | 1017.2 |
| 20260902211028 | 96 | 101 | 1.0 | 6.0 | 0.00 | 0.00 | 0.00 | 48 | 1017.2 |
| 20260902210531 | 96 | 92 | 1.0 | 6.0 | 0.00 | 0.00 | 0.00 | 48 | 1017.3 |
| 20260902210110 | 95 | 126 | 1.0 | 4.0 | 0.00 | 0.00 | 0.00 | 48 | 1017.3 |
| 20260902205531 | 96 | 34 | 2.0 | 4.0 | 0.00 | 0.00 | 0.00 | 48 | 1017.4 |
| 20260902205029 | 96 | 30 | 1.0 | 5.0 | 0.00 | 0.00 | 0.00 | 47 | 1017.4 |
| 20260902204550 | 96 | 0 | 1.0 | 5.0 | 0.00 | 0.00 | 0.00 | 48 | 1017.4 |
| 20260902204028 | 96 | 36 | 1.0 | 6.0 | 0.00 | 0.00 | 0.00 | 47 | 1017.5 |
| 20260902203528 | 96 | 42 | 1.0 | 6.0 | 0.00 | 0.00 | 0.00 | 47 | 1017.4 |
| 20260902203052 | 96 | 40 | 3.0 | 7.0 | 0.00 | 0.00 | 0.00 | 48 | 1017.5 |
| 20260902202528 | 96 | 127 | 0.0 | 7.0 | 0.00 | 0.00 | 0.00 | 48 | 1017.6 |
| 20260902202029 | 96 | 156 | 2.0 | 7.0 | 0.00 | 0.00 | 0.00 | 47 | 1017.6 |
| 20260902201607 | 96 | 273 | 1.0 | 9.0 | 0.00 | 0.00 | 0.00 | 47 | 1017.6 |
| 20260902201028 | 96 | 42 | 3.0 | 9.0 | 0.00 | 0.00 | 0.00 | 46 | 1017.8 |
| 20260902200531 | 95 | 53 | 2.0 | 5.0 | 0.00 | 0.00 | 0.00 | 48 | 1017.9 |
| 20260902200047 | 95 | 0 | 1.0 | 9.0 | 0.00 | 0.00 | 0.00 | 47 | 1017.9 |
| 20260902195532 | 96 | 94 | 2.0 | 11.0 | 0.00 | 0.00 | 0.00 | 46 | 1018.0 |
| 20260902195030 | 95 | 59 | 3.0 | 11.0 | 0.00 | 0.00 | 0.00 | 47 | 1018.0 |
| 20260902194550 | 95 | 25 | 3.0 | 6.0 | 0.00 | 0.00 | 0.00 | 49 | 1018.0 |
| 20260902194031 | 95 | 0 | 0.0 | 9.0 | 0.00 | 0.00 | 0.00 | 50 | 1018.0 |
| 20260902193529 | 95 | 0 | 2.0 | 9.0 | 0.00 | 0.00 | 0.00 | 49 | 1018.1 |
| 20260902193053 | 96 | 119 | 4.0 | 9.0 | 0.00 | 0.00 | 0.00 | 48 | 1018.2 |
| 20260902192528 | 96 | 209 | 1.0 | 8.0 | 0.00 | 0.00 | 0.00 | 47 | 1018.2 |
| 20260902192028 | 97 | 148 | 1.0 | 7.0 | 0.00 | 0.00 | 0.00 | 48 | 1018.2 |
| 20260902191558 | 96 | 0 | 1.0 | 7.0 | 0.00 | 0.00 | 0.00 | 47 | 1018.3 |
| 20260902191028 | 96 | 65 | 1.0 | 5.0 | 0.00 | 0.00 | 0.00 | 47 | 1018.3 |
| 20260902190528 | 96 | 59 | 1.0 | 5.0 | 0.00 | 0.00 | 0.00 | 47 | 1018.4 |
| 20260902190046 | 95 | 67 | 1.0 | 5.0 | 0.00 | 0.00 | 0.00 | 47 | 1018.4 |
| 20260902185533 | 94 | 82 | 1.0 | 4.0 | 0.00 | 0.00 | 0.00 | 48 | 1018.6 |
| 20260902185030 | 94 | 51 | 0.0 | 4.0 | 0.00 | 0.00 | 0.00 | 50 | 1018.6 |
| 20260902184543 | 94 | 0 | 1.0 | 5.0 | 0.00 | 0.00 | 0.00 | 49 | 1018.6 |
| 20260902184032 | 94 | 56 | 2.0 | 5.0 | 0.00 | 0.00 | 0.00 | 49 | 1018.7 |
| 20260902183529 | 94 | 40 | 2.0 | 5.0 | 0.00 | 0.00 | 0.00 | 50 | 1018.7 |
| 20260902183054 | 94 | 0 | 1.0 | 5.0 | 0.00 | 0.00 | 0.00 | 51 | 1018.7 |
| 20260902182532 | 94 | 226 | 3.0 | 5.0 | 0.00 | 0.00 | 0.00 | 51 | 1018.8 |
| 20260902182028 | 94 | 153 | 3.0 | 5.0 | 0.00 | 0.00 | 0.00 | 52 | 1018.8 |
| 20260902181603 | 93 | 0 | 2.0 | 6.0 | 0.00 | 0.00 | 0.00 | 51 | 1018.8 |
| 20260902181034 | 94 | 205 | 2.0 | 9.0 | 0.00 | 0.00 | 0.00 | 52 | 1018.9 |
| 20260902180531 | 94 | 292 | 3.0 | 10.0 | 0.00 | 0.00 | 0.00 | 51 | 1018.8 |
| 20260902180108 | 95 | 331 | 3.0 | 10.0 | 0.00 | 0.00 | 0.00 | 50 | 1018.9 |
| 20260902175534 | 96 | 5 | 3.0 | 8.0 | 0.00 | 0.00 | 0.00 | 48 | 1018.9 |
| 20260902175031 | 96 | 35 | 2.0 | 10.0 | 0.00 | 0.00 | 0.00 | 47 | 1018.9 |
| 20260902174556 | 96 | 44 | 4.0 | 10.0 | 0.00 | 0.00 | 0.00 | 47 | 1019.1 |
| 20260902174031 | 95 | 196 | 4.0 | 8.0 | 0.00 | 0.00 | 0.00 | 48 | 1019.1 |
| 20260902173531 | 95 | 340 | 1.0 | 5.0 | 0.00 | 0.00 | 0.00 | 50 | 1019.2 |
| 20260902173043 | 95 | 33 | 2.0 | 9.0 | 0.00 | 0.00 | 0.00 | 49 | 1019.3 |
| 20260902172529 | 95 | 5 | 4.0 | 9.0 | 0.00 | 0.00 | 0.00 | 50 | 1019.4 |
| 20260902172028 | 95 | 334 | 2.0 | 7.0 | 0.00 | 0.00 | 0.00 | 50 | 1019.5 |
| 20260902171547 | 95 | 111 | 2.0 | 4.0 | 0.00 | 0.00 | 0.00 | 51 | 1019.6 |
| 20260902171029 | 95 | 0 | 0.0 | 4.0 | 0.00 | 0.00 | 0.00 | 52 | 1019.7 |
| 20260902170531 | 95 | 0 | 1.0 | 8.0 | 0.00 | 0.00 | 0.00 | 51 | 1019.7 |
| 20260902170049 | 95 | 331 | 4.0 | 8.0 | 0.00 | 0.00 | 0.00 | 51 | 1019.8 |
| 20260902165531 | 95 | 315 | 1.0 | 6.0 | 0.00 | 0.00 | 0.00 | 51 | 1019.8 |
| 20260902165031 | 95 | 0 | 2.0 | 8.0 | 0.00 | 0.00 | 0.00 | 51 | 1019.7 |
| 20260902164547 | 95 | 323 | 3.0 | 8.0 | 0.00 | 0.00 | 0.00 | 52 | 1019.9 |
| 20260902164031 | 95 | 298 | 1.0 | 8.0 | 0.00 | 0.00 | 0.00 | 53 | 1019.9 |
| 20260902163529 | 95 | 49 | 3.0 | 6.0 | 0.00 | 0.00 | 0.00 | 53 | 1020.0 |
| 20260902163043 | 94 | 53 | 1.0 | 6.0 | 0.00 | 0.00 | 0.00 | 54 | 1020.0 |
| 20260902162527 | 94 | 34 | 1.0 | 6.0 | 0.00 | 0.00 | 0.00 | 56 | 1020.0 |
| 20260902162031 | 94 | 47 | 2.0 | 6.0 | 0.00 | 0.00 | 0.00 | 57 | 1020.1 |
| 20260902161556 | 93 | 78 | 1.0 | 7.0 | 0.00 | 0.00 | 0.00 | 59 | 1020.2 |
| 20260902161028 | 92 | 67 | 1.0 | 7.0 | 0.00 | 0.00 | 0.00 | 59 | 1020.1 |
| 20260902160527 | 92 | 17 | 2.0 | 6.0 | 0.00 | 0.00 | 0.00 | 60 | 1020.2 |
| 20260902160041 | 91 | 138 | 1.0 | 6.0 | 0.00 | 0.00 | 0.00 | 62 | 1020.2 |
| 20260902155533 | 91 | 284 | 1.0 | 5.0 | 0.00 | 0.00 | 0.00 | 63 | 1020.3 |
| 20260902155029 | 91 | 304 | 2.0 | 5.0 | 0.00 | 0.00 | 0.00 | 63 | 1020.3 |
| 20260902154546 | 91 | 329 | 2.0 | 5.0 | 0.00 | 0.00 | 0.00 | 63 | 1020.3 |
| 20260902154031 | 91 | 67 | 2.0 | 6.0 | 0.00 | 0.00 | 0.00 | 64 | 1020.4 |
| 20260902153530 | 90 | 36 | 2.0 | 6.0 | 0.00 | 0.00 | 0.00 | 65 | 1020.5 |
| 20260902153051 | 89 | 213 | 1.0 | 4.0 | 0.00 | 0.00 | 0.00 | 66 | 1020.4 |
| 20260902152535 | 89 | 0 | 2.0 | 6.0 | 0.00 | 0.00 | 0.00 | 66 | 1020.4 |
| 20260902152031 | 89 | 0 | 1.0 | 6.0 | 0.00 | 0.00 | 0.00 | 67 | 1020.5 |
| 20260902151550 | 88 | 280 | 2.0 | 5.0 | 0.00 | 0.00 | 0.00 | 68 | 1020.5 |
| 20260902151033 | 88 | 0 | 2.0 | 5.0 | 0.00 | 0.00 | 0.00 | 69 | 1020.4 |
| 20260902150531 | 87 | 66 | 1.0 | 5.0 | 0.00 | 0.00 | 0.00 | 71 | 1020.5 |
| 20260902150051 | 86 | 342 | 2.0 | 5.0 | 0.00 | 0.00 | 0.00 | 70 | 1020.5 |
| 20260902145532 | 86 | 0 | 0.0 | 3.0 | 0.00 | 0.00 | 0.00 | 73 | 1020.5 |
| 20260902145034 | 85 | 178 | 1.0 | 3.0 | 0.00 | 0.00 | 0.00 | 73 | 1020.4 |
| 20260902144601 | 85 | 47 | 0.0 | 5.0 | 0.00 | 0.00 | 0.00 | 73 | 1020.5 |
| 20260902144032 | 85 | 0 | 2.0 | 5.0 | 0.00 | 0.00 | 0.00 | 73 | 1020.5 |
| 20260902143532 | 85 | 65 | 2.0 | 5.0 | 0.00 | 0.00 | 0.00 | 74 | 1020.4 |
| 20260902143053 | 85 | 0 | 1.0 | 4.0 | 0.00 | 0.00 | 0.00 | 75 | 1020.4 |
| 20260902142531 | 84 | 10 | 1.0 | 4.0 | 0.00 | 0.00 | 0.00 | 76 | 1020.4 |
| 20260902142033 | 84 | 340 | 0.0 | 4.0 | 0.00 | 0.00 | 0.00 | 77 | 1020.4 |
| 20260902141545 | 83 | 341 | 2.0 | 4.0 | 0.00 | 0.00 | 0.00 | 77 | 1020.3 |
| 20260902141035 | 83 | 0 | 1.0 | 4.0 | 0.00 | 0.00 | 0.00 | 79 | 1020.4 |
| 20260902140532 | 83 | 0 | 0.0 | 3.0 | 0.00 | 0.00 | 0.00 | 80 | 1020.4 |
| 20260902140055 | 82 | 0 | 1.0 | 3.0 | 0.00 | 0.00 | 0.00 | 81 | 1020.3 |
| 20260902135532 | 82 | 52 | 0.0 | 3.0 | 0.00 | 0.00 | 0.00 | 82 | 1020.3 |
| 20260902135030 | 82 | 57 | 1.0 | 3.0 | 0.00 | 0.00 | 0.00 | 82 | 1020.5 |
| 20260902134549 | 81 | 67 | 1.0 | 4.0 | 0.00 | 0.00 | 0.00 | 83 | 1020.4 |
| 20260902134033 | 81 | 69 | 1.0 | 4.0 | 0.00 | 0.00 | 0.00 | 84 | 1020.4 |
| 20260902133532 | 80 | 0 | 1.0 | 4.0 | 0.00 | 0.00 | 0.00 | 85 | 1020.5 |
| 20260902133054 | 79 | 0 | 0.0 | 4.0 | 0.00 | 0.00 | 0.00 | 86 | 1020.4 |
| 20260902132532 | 79 | 0 | 0.0 | 4.0 | 0.00 | 0.00 | 0.00 | 86 | 1020.5 |
| 20260902132033 | 79 | 76 | 1.0 | 4.0 | 0.00 | 0.00 | 0.00 | 87 | 1020.5 |
| 20260902131548 | 78 | 66 | 1.0 | 4.0 | 0.00 | 0.00 | 0.00 | 88 | 1020.6 |
| 20260902131034 | 77 | 46 | 1.0 | 3.0 | 0.00 | 0.00 | 0.00 | 89 | 1020.5 |
| 20260902130532 | 77 | 46 | 1.0 | 3.0 | 0.00 | 0.00 | 0.00 | 89 | 1020.4 |
| 20260902125535 | 76 | 0 | 0.0 | 2.0 | 0.00 | 0.00 | 0.00 | 90 | 1020.4 |
| 20260902125034 | 76 | 0 | 0.0 | 2.0 | 0.00 | 0.00 | 0.00 | 90 | 1020.4 |
| 20260902124549 | 75 | 0 | 0.0 | 2.0 | 0.00 | 0.00 | 0.00 | 91 | 1020.4 |
| 20260902124031 | 75 | 43 | 0.0 | 2.0 | 0.00 | 0.00 | 0.00 | 91 | 1020.4 |
| 20260902123545 | 75 | 43 | 1.0 | 3.0 | 0.00 | 0.00 | 0.00 | 91 | 1020.3 |
| 20260902123052 | 75 | 40 | 0.0 | 3.0 | 0.00 | 0.00 | 0.00 | 92 | 1020.4 |
| 20260902122531 | 74 | 0 | 1.0 | 3.0 | 0.00 | 0.00 | 0.00 | 92 | 1020.3 |
| 20260902122031 | 74 | 36 | 0.0 | 3.0 | 0.00 | 0.00 | 0.00 | 92 | 1020.3 |
| 20260902121546 | 74 | 0 | 0.0 | 3.0 | 0.00 | 0.00 | 0.00 | 92 | 1020.3 |
| 20260902121034 | 73 | 30 | 0.0 | 3.0 | 0.00 | 0.00 | 0.00 | 92 | 1020.1 |
| 20260902120533 | 73 | 30 | 0.0 | 2.0 | 0.00 | 0.00 | 0.00 | 92 | 1020.0 |
| 20260902120052 | 73 | 30 | 1.0 | 2.0 | 0.00 | 0.00 | 0.00 | 92 | 1020.0 |
| 20260902115535 | 73 | 31 | 1.0 | 2.0 | 0.00 | 0.00 | 0.00 | 92 | 1020.0 |
| 20260902115030 | 73 | 0 | 0.0 | 0.0 | 0.00 | 0.00 | 0.00 | 92 | 1019.9 |
| 20260902114551 | 73 | 0 | 0.0 | 0.0 | 0.00 | 0.00 | 0.00 | 91 | 1019.8 |
| 20260902114036 | 73 | 0 | 0.0 | 0.0 | 0.00 | 0.00 | 0.00 | 91 | 1019.8 |
| 20260902113531 | 73 | 0 | 0.0 | 0.0 | 0.00 | 0.00 | 0.00 | 91 | 1019.6 |
| 20260902113053 | 73 | 0 | 0.0 | 0.0 | 0.00 | 0.00 | 0.00 | 91 | 1019.6 |
| 20260902112531 | 73 | 0 | 0.0 | 0.0 | 0.00 | 0.00 | 0.00 | 91 | 1019.6 |
| 20260902112031 | 73 | 0 | 0.0 | 0.0 | 0.00 | 0.00 | 0.00 | 91 | 1019.5 |
| 20260902111549 | 73 | 0 | 0.0 | 0.0 | 0.00 | 0.00 | 0.00 | 92 | 1019.5 |
| 20260902111033 | 73 | 0 | 0.0 | 0.0 | 0.00 | 0.00 | 0.00 | 92 | 1019.4 |
| 20260902110530 | 73 | 0 | 0.0 | 0.0 | 0.00 | 0.00 | 0.00 | 92 | 1019.4 |
| 20260902110044 | 73 | 0 | 0.0 | 0.0 | 0.00 | 0.00 | 0.00 | 92 | 1019.4 |
| 20260902105530 | 73 | 0 | 0.0 | 0.0 | 0.00 | 0.00 | 0.00 | 91 | 1019.4 |
| 20260902105030 | 73 | 0 | 0.0 | 0.0 | 0.00 | 0.00 | 0.00 | 91 | 1019.4 |
| 20260902104550 | 73 | 0 | 0.0 | 0.0 | 0.00 | 0.00 | 0.00 | 91 | 1019.4 |
| 20260902104032 | 73 | 0 | 0.0 | 0.0 | 0.00 | 0.00 | 0.00 | 91 | 1019.4 |
| 20260902103532 | 73 | 0 | 0.0 | 0.0 | 0.00 | 0.00 | 0.00 | 91 | 1019.4 |
| 20260902103047 | 73 | 0 | 0.0 | 0.0 | 0.00 | 0.00 | 0.00 | 91 | 1019.3 |
| 20260902102532 | 73 | 0 | 0.0 | 0.0 | 0.00 | 0.00 | 0.00 | 91 | 1019.3 |
| 20260902102029 | 73 | 0 | 0.0 | 0.0 | 0.00 | 0.00 | 0.00 | 91 | 1019.2 |
| 20260902101541 | 73 | 0 | 0.0 | 0.0 | 0.00 | 0.00 | 0.00 | 91 | 1019.2 |
| 20260902101029 | 73 | 0 | 0.0 | 1.0 | 0.00 | 0.00 | 0.00 | 90 | 1019.1 |
| 20260902100531 | 74 | 0 | 0.0 | 1.0 | 0.00 | 0.00 | 0.00 | 91 | 1019.1 |
| 20260902100101 | 73 | 0 | 0.0 | 0.0 | 0.00 | 0.00 | 0.00 | 91 | 1019.2 |
| 20260902095533 | 74 | 0 | 0.0 | 0.0 | 0.00 | 0.00 | 0.00 | 90 | 1019.2 |
| 20260902095030 | 74 | 0 | 0.0 | 0.0 | 0.00 | 0.00 | 0.00 | 90 | 1019.2 |
| 20260902094607 | 74 | 0 | 0.0 | 0.0 | 0.00 | 0.00 | 0.00 | 90 | 1019.1 |
| 20260902094032 | 74 | 0 | 0.0 | 0.0 | 0.00 | 0.00 | 0.00 | 90 | 1019.0 |
| 20260902093529 | 74 | 0 | 0.0 | 1.0 | 0.00 | 0.00 | 0.00 | 90 | 1018.9 |
| 20260902093052 | 74 | 0 | 0.0 | 2.0 | 0.00 | 0.00 | 0.00 | 91 | 1019.0 |
| 20260902092532 | 74 | 0 | 0.0 | 2.0 | 0.00 | 0.00 | 0.00 | 91 | 1019.0 |
| 20260902092031 | 74 | 0 | 0.0 | 2.0 | 0.00 | 0.00 | 0.00 | 91 | 1018.9 |
| 20260902091559 | 74 | 0 | 0.0 | 0.0 | 0.00 | 0.00 | 0.00 | 90 | 1018.8 |
| 20260902091033 | 74 | 0 | 0.0 | 2.0 | 0.00 | 0.00 | 0.00 | 90 | 1018.7 |
| 20260902090530 | 74 | 0 | 0.0 | 3.0 | 0.00 | 0.00 | 0.00 | 90 | 1018.7 |
| 20260902090051 | 74 | 0 | 1.0 | 3.0 | 0.00 | 0.00 | 0.00 | 90 | 1018.6 |
| 20260902085532 | 74 | 30 | 1.0 | 3.0 | 0.00 | 0.00 | 0.00 | 90 | 1018.7 |
| 20260902085033 | 74 | 0 | 0.0 | 1.0 | 0.00 | 0.00 | 0.00 | 90 | 1018.6 |
| 20260902084543 | 74 | 0 | 0.0 | 0.0 | 0.00 | 0.00 | 0.00 | 90 | 1018.6 |
| 20260902084031 | 74 | 0 | 0.0 | 0.0 | 0.00 | 0.00 | 0.00 | 90 | 1018.6 |
| 20260902083531 | 74 | 0 | 0.0 | 0.0 | 0.00 | 0.00 | 0.00 | 90 | 1018.5 |
| 20260902083052 | 74 | 0 | 0.0 | 0.0 | 0.00 | 0.00 | 0.00 | 90 | 1018.4 |
| 20260902082531 | 74 | 0 | 0.0 | 0.0 | 0.00 | 0.00 | 0.00 | 90 | 1018.4 |
| 20260902082034 | 74 | 0 | 0.0 | 0.0 | 0.00 | 0.00 | 0.00 | 90 | 1018.4 |
| 20260902081551 | 74 | 0 | 0.0 | 0.0 | 0.00 | 0.00 | 0.00 | 89 | 1018.3 |
| 20260902081031 | 74 | 0 | 0.0 | 0.0 | 0.00 | 0.00 | 0.00 | 89 | 1018.2 |
| 20260902080533 | 74 | 0 | 0.0 | 0.0 | 0.00 | 0.00 | 0.00 | 89 | 1018.2 |
| 20260902080111 | 74 | 0 | 0.0 | 0.0 | 0.00 | 0.00 | 0.00 | 89 | 1018.1 |
| 20260902075533 | 74 | 0 | 0.0 | 0.0 | 0.00 | 0.00 | 0.00 | 89 | 1018.2 |
| 20260902075030 | 74 | 0 | 0.0 | 0.0 | 0.00 | 0.00 | 0.00 | 89 | 1018.2 |
| 20260902074548 | 74 | 0 | 0.0 | 0.0 | 0.00 | 0.00 | 0.00 | 89 | 1018.2 |
| 20260902074028 | 74 | 0 | 0.0 | 0.0 | 0.00 | 0.00 | 0.00 | 89 | 1018.2 |
| 20260902073533 | 74 | 0 | 0.0 | 0.0 | 0.00 | 0.00 | 0.00 | 89 | 1018.2 |
| 20260902073048 | 74 | 0 | 0.0 | 0.0 | 0.00 | 0.00 | 0.00 | 89 | 1018.3 |
| 20260902072530 | 74 | 0 | 0.0 | 0.0 | 0.00 | 0.00 | 0.00 | 89 | 1018.3 |
| 20260902072033 | 75 | 0 | 0.0 | 0.0 | 0.00 | 0.00 | 0.00 | 88 | 1018.4 |
| 20260902071546 | 75 | 0 | 0.0 | 0.0 | 0.00 | 0.00 | 0.00 | 88 | 1018.3 |
| 20260902071031 | 75 | 0 | 0.0 | 0.0 | 0.00 | 0.00 | 0.00 | 88 | 1018.4 |
| 20260902070532 | 75 | 0 | 0.0 | 0.0 | 0.00 | 0.00 | 0.00 | 88 | 1018.3 |
| 20260902070100 | 75 | 0 | 0.0 | 0.0 | 0.00 | 0.00 | 0.00 | 88 | 1018.5 |
| 20260902065529 | 75 | 0 | 0.0 | 0.0 | 0.00 | 0.00 | 0.00 | 88 | 1018.4 |
| 20260902065030 | 75 | 0 | 0.0 | 0.0 | 0.00 | 0.00 | 0.00 | 88 | 1018.4 |
| 20260902064605 | 75 | 0 | 0.0 | 0.0 | 0.00 | 0.00 | 0.00 | 87 | 1018.5 |
| 20260902064033 | 75 | 0 | 0.0 | 0.0 | 0.00 | 0.00 | 0.00 | 87 | 1018.5 |
| 20260902063536 | 75 | 0 | 0.0 | 0.0 | 0.00 | 0.00 | 0.00 | 87 | 1018.6 |
| 20260902063048 | 75 | 0 | 0.0 | 0.0 | 0.00 | 0.00 | 0.00 | 87 | 1018.6 |
| 20260902062533 | 76 | 0 | 0.0 | 0.0 | 0.00 | 0.00 | 0.00 | 87 | 1018.6 |
| 20260902062029 | 76 | 0 | 0.0 | 0.0 | 0.00 | 0.00 | 0.00 | 87 | 1018.6 |
| 20260902061554 | 76 | 0 | 0.0 | 0.0 | 0.00 | 0.00 | 0.00 | 87 | 1018.6 |
| 20260902061036 | 76 | 0 | 0.0 | 0.0 | 0.00 | 0.00 | 0.00 | 86 | 1018.6 |
| 20260902060532 | 76 | 0 | 0.0 | 0.0 | 0.00 | 0.00 | 0.00 | 86 | 1018.6 |
| 20260902060046 | 76 | 0 | 0.0 | 0.0 | 0.00 | 0.00 | 0.00 | 86 | 1018.6 |
| 20260902055533 | 76 | 0 | 0.0 | 1.0 | 0.00 | 0.00 | 0.00 | 86 | 1018.6 |
| 20260902055029 | 76 | 0 | 0.0 | 1.0 | 0.00 | 0.00 | 0.00 | 86 | 1018.6 |
| 20260902054542 | 76 | 37 | 0.0 | 1.0 | 0.00 | 0.00 | 0.00 | 86 | 1018.6 |
| 20260902054032 | 76 | 0 | 0.0 | 0.0 | 0.00 | 0.00 | 0.00 | 86 | 1018.7 |
| 20260902053532 | 76 | 0 | 0.0 | 0.0 | 0.00 | 0.00 | 0.00 | 85 | 1018.7 |